| time (UTC) | temp F | wind direction | speed MPH | gust MPH | rain 1hr in | rain 24hr in | rain mn in | humidity % | barometer mb |
| 20260504234601 | 60 | 97 | 0.0 | 7.0 | 0.00 | 0.00 | 0.00 | 60 | 1011.1 |
| 20260504233112 | 61 | 265 | 0.0 | 3.0 | 0.00 | 0.00 | 0.00 | 57 | 1010.8 |
| 20260504231559 | 62 | 266 | 1.0 | 8.0 | 0.00 | 0.00 | 0.00 | 55 | 1010.7 |
| 20260504230059 | 62 | 262 | 1.0 | 8.0 | 0.00 | 0.00 | 0.00 | 53 | 1010.6 |
| 20260504224556 | 63 | 263 | 1.0 | 7.0 | 0.00 | 0.00 | 0.00 | 52 | 1010.5 |
| 20260504223055 | 64 | 167 | 2.0 | 9.0 | 0.00 | 0.00 | 0.00 | 49 | 1010.6 |
| 20260504221554 | 65 | 263 | 0.0 | 9.0 | 0.00 | 0.00 | 0.00 | 49 | 1010.8 |
| 20260504220054 | 65 | 263 | 1.0 | 7.0 | 0.00 | 0.00 | 0.00 | 50 | 1010.7 |
| 20260504214555 | 66 | 270 | 1.0 | 6.0 | 0.00 | 0.00 | 0.00 | 49 | 1010.7 |
| 20260504213053 | 66 | 267 | 2.0 | 8.0 | 0.00 | 0.00 | 0.00 | 48 | 1010.9 |
| 20260504211551 | 67 | 267 | 1.0 | 9.0 | 0.00 | 0.00 | 0.00 | 48 | 1010.8 |
| 20260504210052 | 67 | 281 | 2.0 | 9.0 | 0.00 | 0.00 | 0.00 | 48 | 1010.8 |
| 20260504204553 | 68 | 262 | 2.0 | 10.0 | 0.00 | 0.00 | 0.00 | 44 | 1010.7 |
| 20260504203055 | 69 | 223 | 2.0 | 11.0 | 0.00 | 0.00 | 0.00 | 38 | 1010.6 |
| 20260504201547 | 71 | 271 | 2.0 | 6.0 | 0.00 | 0.00 | 0.00 | 38 | 1010.6 |
| 20260504200046 | 71 | 263 | 1.0 | 10.0 | 0.00 | 0.00 | 0.00 | 35 | 1010.7 |
| 20260504194548 | 72 | 286 | 1.0 | 8.0 | 0.00 | 0.00 | 0.00 | 35 | 1010.8 |
| 20260504193042 | 73 | 269 | 2.0 | 15.0 | 0.00 | 0.00 | 0.00 | 35 | 1010.9 |
| 20260504191549 | 72 | 282 | 1.0 | 12.0 | 0.00 | 0.00 | 0.00 | 36 | 1011.1 |
| 20260504190039 | 72 | 286 | 3.0 | 11.0 | 0.00 | 0.00 | 0.00 | 35 | 1011.3 |
| 20260504184537 | 72 | 284 | 1.0 | 8.0 | 0.00 | 0.00 | 0.00 | 34 | 1011.4 |
| 20260504183034 | 73 | 55 | 2.0 | 8.0 | 0.00 | 0.00 | 0.00 | 32 | 1011.5 |
| 20260504181532 | 72 | 261 | 1.0 | 6.0 | 0.00 | 0.00 | 0.00 | 36 | 1011.8 |
| 20260504180030 | 71 | 315 | 1.0 | 8.0 | 0.00 | 0.00 | 0.00 | 34 | 1012.1 |
| 20260504174526 | 71 | 204 | 1.0 | 11.0 | 0.00 | 0.00 | 0.00 | 36 | 1012.2 |
| 20260504173023 | 70 | 284 | 1.0 | 7.0 | 0.00 | 0.00 | 0.00 | 36 | 1012.4 |
| 20260504171530 | 70 | 282 | 3.0 | 9.0 | 0.00 | 0.00 | 0.00 | 34 | 1012.5 |
| 20260504100104 | 42 | 241 | 0.0 | 0.0 | 0.00 | 0.00 | 0.00 | 80 | 1015.2 |
| 20260504090106 | 41 | 16 | 0.0 | 0.0 | 0.00 | 0.00 | 0.00 | 86 | 1014.9 |
| 20260504081550 | 39 | 336 | 0.0 | 0.0 | 0.00 | 0.00 | 0.00 | 90 | 1014.6 |
| 20260504050024 | 38 | 331 | 0.0 | 0.0 | 0.00 | 0.00 | 0.00 | 85 | 1014.1 |
| 20260504044524 | 38 | 331 | 0.0 | 0.0 | 0.00 | 0.00 | 0.00 | 83 | 1014.0 |
| 20260504043030 | 38 | 331 | 0.0 | 0.0 | 0.00 | 0.00 | 0.00 | 83 | 1014.0 |
| 20260504041521 | 39 | 331 | 0.0 | 0.0 | 0.00 | 0.00 | 0.00 | 82 | 1013.8 |
| 20260504040018 | 39 | 331 | 0.0 | 0.0 | 0.00 | 0.00 | 0.00 | 81 | 1013.8 |
| 20260504034513 | 40 | 331 | 0.0 | 0.0 | 0.00 | 0.00 | 0.00 | 79 | 1013.9 |
| 20260504033014 | 40 | 331 | 0.0 | 0.0 | 0.00 | 0.00 | 0.00 | 78 | 1013.8 |
| 20260504031510 | 41 | 331 | 0.0 | 0.0 | 0.00 | 0.00 | 0.00 | 76 | 1013.9 |
| 20260504030012 | 41 | 331 | 0.0 | 0.0 | 0.00 | 0.00 | 0.00 | 74 | 1013.7 |
| 20260504024505 | 42 | 331 | 0.0 | 0.0 | 0.00 | 0.00 | 0.00 | 73 | 1013.8 |
| 20260504023003 | 42 | 331 | 0.0 | 0.0 | 0.00 | 0.00 | 0.00 | 70 | 1013.8 |
| 20260504021501 | 43 | 331 | 0.0 | 0.0 | 0.00 | 0.00 | 0.00 | 68 | 1013.7 |
| 20260504020100 | 44 | 331 | 0.0 | 0.0 | 0.00 | 0.00 | 0.00 | 67 | 1013.7 |
| 20260504014559 | 45 | 331 | 0.0 | 0.0 | 0.00 | 0.00 | 0.00 | 64 | 1013.6 |
| 20260504013116 | 46 | 331 | 0.0 | 0.0 | 0.00 | 0.00 | 0.00 | 59 | 1013.5 |
| 20260504011557 | 47 | 331 | 0.0 | 0.0 | 0.00 | 0.00 | 0.00 | 55 | 1013.4 |
| 20260504010101 | 48 | 331 | 0.0 | 0.0 | 0.00 | 0.00 | 0.00 | 51 | 1013.1 |
| 20260504004606 | 49 | 331 | 0.0 | 0.0 | 0.00 | 0.00 | 0.00 | 50 | 1012.9 |
| 20260504003053 | 50 | 331 | 0.0 | 0.0 | 0.00 | 0.00 | 0.00 | 50 | 1012.7 |
| 20260504001552 | 52 | 331 | 0.0 | 0.0 | 0.00 | 0.00 | 0.00 | 50 | 1012.4 |
| 20260504000056 | 53 | 331 | 0.0 | 0.0 | 0.00 | 0.00 | 0.00 | 52 | 1012.3 |